Volver al catálogo

FENGYUN 1C DEB

ActivoSSO
NORAD 31838·DEBRIS·🇨🇳 China

Lanzado May 10, 1999 desde Taiyuan Satellite Launch Center

Loading…

Próximos Pases (próximas 24 horas)

TLE

EnvejeciendoSource: Space-Track

Época: Sep 8, 2026, 08:35 UTC

1 31838U 99025CJC 26251.35820925  .00000764  00000-0  36407-3 0  9998
2 31838  98.6942 303.2977 0037850  37.8635  21.7128 14.21802504684072

Sigue FENGYUN 1C DEB en tiempo real con AllMySat

Download on the App Store